Location: *
(34.8620°S, 39.3380°E)
Time: 07:52:55
(UTC+00:00)

SAOCOM 1-B - Pass Details

Date: 07 June 2022
Orbit: 621 x 623 km, 97.9° (Epoch: 06 July)

Event Time Altitude Azimuth Distance (km) Brightness Sun altitude
Rises 02:26:59 0° 146° (SE) 2,936 ? -23.5°
Reaches altitude 10° 02:30:05 10° 122° (ESE) 2,018 ? -22.9°
Maximum altitude 02:32:36 15° 87° (E) 1,702 ? -22.4°
Drops below altitude 10° 02:35:07 10° 52° (NE) 2,002 ? -21.9°
Sets 02:38:09 0° 28° (NNE) 2,897 ? -21.3°
